Погода в Нагпуре

Индия     21°09′44″N   79°04′10″E
темп.,
°C
ветер,
м/с
пор.,
м/с
влажн.,
%
обл.,
%
осадки,
мм/ч
давл.,
гПа
погр.,
м
19 января, вт
вт1923:30+20зюз12390 0.0 101323
02:30+18вюв11430 0.0 101223
05:30+16всв22480 0.0 101224
08:30+20в11420 0.0 1014133
11:30+28ю33330 0.0 1013819
14:30+32юз25290 0.0 10102372
17:30+28з23340 0.0 100968
20:30+23з12470 0.0 101224
20 января, ср
ср2023:30+21ссв12550 0.0 101223
02:30+20сз23590 0.0 101124
05:30+18с22630 0.0 101124
08:30+22с23430 0.0 1014159
11:30+29вюв21290 0.0 1014945
14:30+32з24220 0.0 10102376
17:30+29зсз23250 0.0 101036
20:30+22с34320 0.0 101348
21 января, чт
чт2123:30+19с34380 0.0 101336
02:30+17с34400 0.0 101255
05:30+15с23410 0.0 101325
08:30+19ссв24340 0.0 1015175
11:30+27всв33200 0.0 10141138
14:30+31ссз24140 0.0 10112042
17:30+27сз11180 0.0 101139
20:30+19с23260 0.0 101427
22 января, пт
пт2223:30+16с23280 0.0 101425
02:30+15с23290 0.0 101325
05:30+14ссв23310 0.0 101425
08:30+18ссв242529 0.0 1016170
11:30+27в331519 0.0 1014820
14:30+31юв22130 0.0 10111525
17:30+26ююв33170 0.0 101031
20:30+20юз22220 0.0 101223
23 января, сб
сб2323:30+17ссз23270 0.0 101224
02:30+15ссв12300 0.0 101123
05:30+14с12290 0.0 101123
08:30+18всв11240 0.0 1013103
11:30+27ююв33160 0.0 1013678
14:30+31ююз341325 0.0 10091546
17:30+28ююз341912 0.0 100856
20:30+21ююз23230 0.0 101124